Tracking 20621 objects as of 31-Mar-2020
HD Live streaming from Space Station
objects crossing your sky now

COSMOS 2333

Track COSMOS 2333 now!
10-day predictions
COSMOS 2333 is classified as:


NORAD ID: 24297
Int'l Code: 1996-051A
Perigee: 839.8 km
Apogee: 870.4 km
Inclination: 70.9 °
Period: 101.9 minutes
Semi major axis: 7226 km
RCS: 6.069 m2 (large)
Launch date: September 4, 1996
Source: Commonwealth of Independent States (former USSR) (CIS)
Launch site: TYURATAM MISSILE AND SPACE COMPLEX (TTMTR)
aabbcc
Your satellite tracking list
Your tracking list is empty




NASA's NSSDC Master Catalog

Two Line Element Set (TLE):
1 24297U 96051A   20090.67492338 -.00000149  00000-0 -53515-4 0  9997
2 24297  70.9042  72.2802 0021185 120.5297 239.7919 14.13344646215905
Source of the keplerian elements: AFSPC